H1 CPF  2 gal 2023 08 25 09 237 1 galileo224
H2 2111602 7224 49810 2023 08 25 00 14 42 2023 08 30 00 14 42 900 1 1 0 0 0 1
H9                                                                                
10 0 60183  38682.000000  0      -4854066.537      18007091.189     -22993049.972 
10 0 60183  39582.000000  0      -6154429.571      16329905.772     -23916946.977 
10 0 60183  40482.000000  0      -7621953.522      14701747.879     -24543611.578 
10 0 60183  41382.000000  0      -9236035.319      13156507.896     -24865291.613 
10 0 60183  42282.000000  0     -10970673.486      11724331.527     -24878021.616 
10 0 60183  43182.000000  0     -12795230.753      10430716.040     -24581670.319 
10 0 60183  44082.000000  0     -14675343.147       9295754.347     -23979940.958 
10 0 60183  44982.000000  0     -16573947.239       8333550.344     -23080324.472 
10 0 60183  45882.000000  0     -18452393.603       7551823.570     -21894006.172 
10 0 60183  46782.000000  0     -20271611.850       6951715.393     -20435727.048 
10 0 60183  47682.000000  0     -21993290.999       6527802.630     -18723601.367 
10 0 60183  48582.000000  0     -23581038.464       6268318.084     -16778892.785 
10 0 60183  49482.000000  0     -25001481.590       6155571.028     -14625751.614 
10 0 60183  50382.000000  0     -26225277.417       6166554.459     -12290916.442 
10 0 60183  51282.000000  0     -27227999.206       6273720.096      -9803383.655 
10 0 60183  52182.000000  0     -27990872.057       6445896.887      -7194048.893 
10 0 60183  53082.000000  0     -28501334.628       6649324.268      -4495324.770 
10 0 60183  53982.000000  0     -28753409.382       6848767.823      -1740739.529 
10 0 60183  54882.000000  0     -28747869.726       7008682.393       1035478.436 
10 0 60183  55782.000000  0     -28492198.757       7094386.162       3798825.083 
10 0 60183  56682.000000  0     -28000340.845       7073208.871       6514948.987 
10 0 60183  57582.000000  0     -27292253.735       6915578.104       9150078.063 
10 0 60183  58482.000000  0     -26393275.140       6596009.464      11671439.421 
10 0 60183  59382.000000  0     -25333323.572       6093969.485      14047667.111 
10 0 60183  60282.000000  0     -24145958.404       5394584.061      16249192.684 
10 0 60183  61182.000000  0     -22867328.533       4489169.989      18248613.656 
10 0 60183  62082.000000  0     -21535042.569       3375572.778      20021035.275 
10 0 60183  62982.000000  0     -20186995.890       2058299.910      21544381.311 
10 0 60183  63882.000000  0     -18860191.326        548445.156      22799669.964 
10 0 60183  64782.000000  0     -17589590.401      -1136593.914      23771251.418 
10 0 60183  65682.000000  0     -16407031.151      -2973596.611      24447004.072 
10 0 60183  66582.000000  0     -15340246.439      -4934183.141      24818486.924 
10 0 60183  67482.000000  0     -14412013.565      -6985641.376      24881046.196 
10 0 60183  68382.000000  0     -13639461.860      -9091890.664      24633874.793 
10 0 60183  69282.000000  0     -13033560.006     -11214552.642      24080023.789 
10 0 60183  70182.000000  0     -12598799.204     -13314095.648      23226365.732 
10 0 60183  71082.000000  0     -12333082.150     -15351016.976      22083510.145 
10 0 60183  71982.000000  0     -12227821.331     -17287025.996      20665672.202 
10 0 60183  72882.000000  0     -12268243.565     -19086191.107      18990496.153 
10 0 60183  73782.000000  0     -12433891.210     -20716014.585      17078835.651 
10 0 60183  74682.000000  0     -12699304.266     -22148401.635      14954493.684 
10 0 60183  75582.000000  0     -13034861.882     -23360493.251      12643925.358 
10 0 60183  76482.000000  0     -13407756.729     -24335336.764      10175907.263 
10 0 60183  77382.000000  0     -13783071.525     -25062373.056       7581177.593 
10 0 60183  78282.000000  0     -14124923.711     -25537725.205       4892051.592 
10 0 60183  79182.000000  0     -14397642.177     -25764279.561       2142017.251 
10 0 60183  80082.000000  0     -14566938.891     -25751556.836       -634683.615 
10 0 60183  80982.000000  0     -14601038.462     -25515377.391      -3403483.508 
10 0 60183  81882.000000  0     -14471730.029     -25077331.405      -6129921.165 
10 0 60183  82782.000000  0     -14155308.326     -24464070.749      -8780071.736 
10 0 60183  83682.000000  0     -13633374.303     -23706444.996     -11320969.758 
10 0 60183  84582.000000  0     -12893470.152     -22838508.869     -13721019.590 
10 0 60183  85482.000000  0     -11929528.805     -21896432.441     -15950388.163 
10 0 60183  86382.000000  0     -10742123.851     -20917348.397     -17981375.166 
10 0 60184    882.000000  0      -9338512.089     -19938172.606     -19788756.120 
10 0 60184   1782.000000  0      -7732467.459     -18994434.986     -21350094.135 
10 0 60184   2682.000000  0      -5943911.585     -18119157.293     -22646016.635 
10 0 60184   3582.000000  0      -3998352.569     -17341812.906     -23660453.718 
10 0 60184   4482.000000  0      -1926149.574     -16687401.072     -24380835.378 
10 0 60184   5382.000000  0        238373.806     -16175664.428     -24798245.279 
10 0 60184   6282.000000  0       2457939.767     -15820474.151     -24907529.340 
10 0 60184   7182.000000  0       4693418.623     -15629401.780     -24707357.901 
10 0 60184   8082.000000  0       6904988.976     -15603490.975     -24200240.807 
10 0 60184   8982.000000  0       9053319.644     -15737236.207     -23392495.297 
10 0 60184   9882.000000  0      11100736.644     -16018768.957     -22294167.122 
10 0 60184  10782.000000  0      13012338.975     -16430245.549     -20918905.868 
10 0 60184  11682.000000  0      14757028.572     -16948424.448     -19283795.994 
10 0 60184  12582.000000  0      16308422.406     -17545414.996     -17409145.615 
10 0 60184  13482.000000  0      17645618.438     -18189574.191     -15318235.558 
10 0 60184  14382.000000  0      18753791.582     -18846523.501     -13037031.705 
10 0 60184  15282.000000  0      19624601.170     -19480253.957     -10593864.084 
10 0 60184  16182.000000  0      20256397.236     -20054284.985      -8019076.582 
10 0 60184  17082.000000  0      20654219.203     -20532840.730      -5344651.541 
10 0 60184  17982.000000  0      20829587.026     -20882007.060      -2603813.799 
10 0 60184  18882.000000  0      20800091.332     -21070832.981        169380.952 
10 0 60184  19782.000000  0      20588795.359     -21072341.934       2940468.439 
10 0 60184  20682.000000  0      20223467.419     -20864421.198       5675003.479 
10 0 60184  21582.000000  0      19735667.909     -20430561.424       8338987.749 
10 0 60184  22482.000000  0      19159719.460     -19760422.995      10899292.341 
10 0 60184  23382.000000  0      18531592.510     -18850211.304      13324069.812 
10 0 60184  24282.000000  0      17887741.240     -17702849.013      15583150.609 
10 0 60184  25182.000000  0      17263926.398     -16327939.698      17648418.895 
10 0 60184  26082.000000  0      16694061.954     -14741523.842      19494163.083 
10 0 60184  26982.000000  0      16209121.815     -12965634.596      21097396.693 
10 0 60184  27882.000000  0      15836140.939     -11027667.043      22438145.498 
10 0 60184  28782.000000  0      15597342.282      -8959580.517      23499697.372 
10 0 60184  29682.000000  0      15509417.031      -6796958.782      24268811.683 
10 0 60184  30582.000000  0      15582980.828      -4577957.334      24735885.598 
10 0 60184  31482.000000  0      15822223.149      -2342170.643      24895075.160 
10 0 60184  32382.000000  0      16224760.981       -129454.668      24744369.597 
10 0 60184  33282.000000  0      16781701.494       2021258.580      24285617.853 
10 0 60184  34182.000000  0      17477911.894       4073117.383      23524506.943 
10 0 60184  35082.000000  0      18292488.078       5992441.420      22470492.320 
10 0 60184  35982.000000  0      19199407.508       7749713.495      21136681.060 
10 0 60184  36882.000000  0      20168345.852       9320440.826      19539669.220 
10 0 60184  37782.000000  0      21165631.827      10685858.957      17699335.375 
10 0 60184  38682.000000  0      22155310.241      11833456.230      15638592.838 
10 0 60184  39582.000000  0      23100279.843      12757302.423      13383103.659 
10 0 60184  40482.000000  0      23963470.184      13458171.315      10960957.978 
10 0 60184  41382.000000  0      24709020.429      13943453.409       8402322.777 
10 0 60184  42282.000000  0      25303423.002      14226861.688       5739064.493 
10 0 60184  43182.000000  0      25716596.033      14327939.806       3004350.292 
10 0 60184  44082.000000  0      25922850.823      14271388.316        232233.112 
10 0 60184  44982.000000  0      25901723.866      14086230.335      -2542774.215 
10 0 60184  45882.000000  0      25638647.254      13804843.050      -5286130.328 
10 0 60184  46782.000000  0      25125436.403      13461885.702      -7963696.665 
10 0 60184  47682.000000  0      24360579.820      13093157.933     -10542163.275 
10 0 60184  48582.000000  0      23349321.880      12734424.501     -12989463.740 
10 0 60184  49482.000000  0      22103536.103      12420243.411     -15275173.968 
10 0 60184  50382.000000  0      20641393.013      12182834.322     -17370889.920 
10 0 60184  51282.000000  0      18986833.090      12051022.783     -19250579.591 
10 0 60184  52182.000000  0      17168861.430      12049293.396     -20890904.942 
10 0 60184  53082.000000  0      15220686.255      12196981.541     -22271509.915 
10 0 60184  53982.000000  0      13178728.275      12507628.922     -23375271.073 
10 0 60184  54882.000000  0      11081531.869      12988523.004     -24188507.915 
10 0 60184  55782.000000  0       8968612.072      13640434.685     -24701150.421 
10 0 60184  56682.000000  0       6879273.297      14457562.294     -24906861.896 
99